When you browse on this site, cookies collect data to enhance your experience and personalize the content and advertising you see.
Visit our Privacy Policy to learn more. By continuing to use the site, you agree to this use of cookies and data.
  • In Austria
  • List of Countries
  • For 7 days
  • Water Temperature
  • Weather Map
  • News
  • Weather Widgets
  • user-avatar
    Login

    Hourly Weather Lopez

    Today, 17 September, Tuesday

    Time Temperature Precipitation Wind Pressure Humidity
    00:00 +16°C° 0.1 mm 1 mps 624 mmHg 91%
    01:00 +16°C° 0.1 mm 1 mps 624 mmHg 91%
    02:00 +16°C° 0 mm 1 mps 623 mmHg 90%
    03:00 +15°C° 0 mm 0 mps 623 mmHg 90%
    04:00 +15°C° 0 mm 0 mps 623 mmHg 90%
    05:00 +15°C° 0 mm 0 mps 624 mmHg 89%
    06:00 +16°C° 0 mm 0 mps 624 mmHg 87%
    07:00 +16°C° 0 mm 0 mps 625 mmHg 86%
    08:00 +18°C° 0 mm 0 mps 626 mmHg 77%
    09:00 +23°C° 0 mm 1 mps 627 mmHg 68%
    10:00 +25°C° 0 mm 1 mps 628 mmHg 59%
    11:00 +25°C° 0.5 mm 1 mps 627 mmHg 62%
    12:00 +25°C° 0.5 mm 1 mps 626 mmHg 66%
    13:00 +24°C° 0.5 mm 1 mps 626 mmHg 69%
    14:00 +24°C° 0.9 mm 1 mps 625 mmHg 73%
    15:00 +23°C° 0.9 mm 1 mps 624 mmHg 77%
    16:00 +21°C° 0.9 mm 2 mps 624 mmHg 81%
    17:00 +21°C° 1 mm 1 mps 624 mmHg 85%
    18:00 +20°C° 1 mm 1 mps 624 mmHg 90%
    19:00 +18°C° 1 mm 1 mps 624 mmHg 94%
    20:00 +18°C° 0.8 mm 1 mps 624 mmHg 94%
    21:00 +18°C° 0.8 mm 1 mps 624 mmHg 94%
    22:00 +16°C° 0.8 mm 1 mps 624 mmHg 94%
    23:00 +16°C° 0.6 mm 1 mps 624 mmHg 93%

    Tomorrow, 18 September, Wednesday

    Time Temperature Precipitation Wind Pressure Humidity
    00:00 +15°C° 0.6 mm 0 mps 624 mmHg 93%
    01:00 +15°C° 0.6 mm 0 mps 623 mmHg 93%
    02:00 +15°C° 0.1 mm 0 mps 623 mmHg 92%
    03:00 +15°C° 0.1 mm 0 mps 623 mmHg 92%
    04:00 +15°C° 0.1 mm 0 mps 623 mmHg 91%
    05:00 +15°C° 0 mm 0 mps 623 mmHg 90%
    06:00 +15°C° 0 mm 0 mps 624 mmHg 89%
    07:00 +15°C° 0 mm 0 mps 624 mmHg 88%
    08:00 +19°C° 0 mm 1 mps 625 mmHg 81%
    09:00 +21°C° 0 mm 1 mps 626 mmHg 74%
    10:00 +24°C° 0 mm 1 mps 626 mmHg 67%
    11:00 +24°C° 0.4 mm 1 mps 626 mmHg 68%
    12:00 +24°C° 0.4 mm 1 mps 625 mmHg 69%
    13:00 +24°C° 0.4 mm 1 mps 625 mmHg 70%
    14:00 +23°C° 1.4 mm 1 mps 624 mmHg 75%
    15:00 +22°C° 1.4 mm 1 mps 624 mmHg 81%
    16:00 +21°C° 1.4 mm 1 mps 623 mmHg 86%
    17:00 +20°C° 0.9 mm 1 mps 623 mmHg 89%
    18:00 +19°C° 0.9 mm 1 mps 623 mmHg 92%
    19:00 +17°C° 0.9 mm 0 mps 623 mmHg 95%
    20:00 +17°C° 0.5 mm 0 mps 623 mmHg 96%
    21:00 +16°C° 0.5 mm 0 mps 624 mmHg 96%
    22:00 +16°C° 0.5 mm 0 mps 624 mmHg 97%
    23:00 +16°C° 0.3 mm 0 mps 624 mmHg 96%

    Day after tomorrow, 19 September, Thursday

    Time Temperature Precipitation Wind Pressure Humidity
    00:00 +16°C° 0.3 mm 0 mps 623 mmHg 96%
    01:00 +16°C° 0.3 mm 0 mps 623 mmHg 96%
    02:00 +16°C° 0.4 mm 0 mps 623 mmHg 96%
    03:00 +16°C° 0.4 mm 0 mps 623 mmHg 96%
    04:00 +15°C° 0.4 mm 0 mps 622 mmHg 96%
    05:00 +16°C° 0.2 mm 0 mps 623 mmHg 95%
    06:00 +16°C° 0.2 mm 0 mps 623 mmHg 94%
    07:00 +16°C° 0.2 mm 0 mps 624 mmHg 93%
    08:00 +18°C° 0.2 mm 0 mps 625 mmHg 86%
    09:00 +22°C° 0.2 mm 1 mps 625 mmHg 79%
    10:00 +24°C° 0.2 mm 1 mps 626 mmHg 72%
    11:00 +23°C° 1.4 mm 1 mps 625 mmHg 75%
    12:00 +23°C° 1.4 mm 1 mps 625 mmHg 78%
    13:00 +23°C° 1.4 mm 1 mps 624 mmHg 82%
    14:00 +22°C° 1.6 mm 1 mps 624 mmHg 85%
    15:00 +21°C° 1.6 mm 1 mps 623 mmHg 88%
    16:00 +20°C° 1.6 mm 1 mps 622 mmHg 92%
    17:00 +17°C° 2.5 mm 0 mps 622 mmHg 94%
    18:00 +17°C° 2.5 mm 0 mps 623 mmHg 96%
    19:00 +16°C° 2.5 mm 0 mps 623 mmHg 98%
    20:00 +16°C° 1.3 mm 0 mps 623 mmHg 97%
    21:00 +16°C° 1.3 mm 0 mps 623 mmHg 97%
    22:00 +16°C° 1.3 mm 0 mps 624 mmHg 97%
    23:00 +16°C° 0.4 mm 0 mps 624 mmHg 97%

    20 September, Friday

    Time Temperature Precipitation Wind Pressure Humidity
    00:00 +16°C° 0.4 mm 0 mps 623 mmHg 97%
    01:00 +15°C° 0.4 mm 0 mps 623 mmHg 97%
    02:00 +15°C° 0.4 mm 0 mps 623 mmHg 97%
    03:00 +15°C° 0.4 mm 0 mps 623 mmHg 97%
    04:00 +15°C° 0.4 mm 0 mps 623 mmHg 97%
    05:00 +15°C° 0.4 mm 0 mps 623 mmHg 96%
    06:00 +16°C° 0.4 mm 0 mps 624 mmHg 95%
    07:00 +16°C° 0.4 mm 0 mps 625 mmHg 95%
    08:00 +17°C° 0.3 mm 0 mps 625 mmHg 91%
    09:00 +18°C° 0.3 mm 0 mps 626 mmHg 88%
    10:00 +21°C° 0.3 mm 1 mps 626 mmHg 84%
    11:00 +21°C° 0.8 mm 1 mps 626 mmHg 87%
    12:00 +18°C° 0.8 mm 0 mps 625 mmHg 89%
    13:00 +18°C° 0.8 mm 0 mps 625 mmHg 91%
    14:00 +18°C° 0.8 mm 0 mps 625 mmHg 90%
    15:00 +20°C° 0.8 mm 1 mps 624 mmHg 88%
    16:00 +20°C° 0.8 mm 1 mps 624 mmHg 87%
    17:00 +19°C° 0.2 mm 1 mps 624 mmHg 90%
    18:00 +18°C° 0.2 mm 1 mps 624 mmHg 92%
    19:00 +16°C° 0.2 mm 1 mps 623 mmHg 95%
    20:00 +16°C° 0 mm 1 mps 624 mmHg 94%
    21:00 +16°C° 0 mm 1 mps 624 mmHg 94%
    22:00 +15°C° 0 mm 1 mps 624 mmHg 93%
    23:00 +15°C° 0 mm 1 mps 624 mmHg 92%

    21 September, Saturday

    Time Temperature Precipitation Wind Pressure Humidity
    00:00 +14°C° 0 mm 0 mps 624 mmHg 91%
    01:00 +14°C° 0 mm 0 mps 623 mmHg 90%
    02:00 +14°C° 0 mm 0 mps 623 mmHg 90%
    03:00 +15°C° 0 mm 0 mps 624 mmHg 89%
    04:00 +15°C° 0 mm 0 mps 624 mmHg 89%
    05:00 +15°C° 0 mm 0 mps 624 mmHg 88%
    06:00 +15°C° 0 mm 0 mps 624 mmHg 88%
    07:00 +15°C° 0 mm 0 mps 625 mmHg 87%
    08:00 +18°C° 0 mm 0 mps 626 mmHg 78%
    09:00 +22°C° 0 mm 1 mps 627 mmHg 69%
    10:00 +25°C° 0 mm 1 mps 628 mmHg 61%
    11:00 +25°C° 0.4 mm 1 mps 627 mmHg 60%
    12:00 +26°C° 0.4 mm 1 mps 627 mmHg 59%
    13:00 +26°C° 0.4 mm 2 mps 626 mmHg 59%
    14:00 +25°C° 0.8 mm 2 mps 626 mmHg 63%
    15:00 +24°C° 0.8 mm 2 mps 625 mmHg 68%
    16:00 +24°C° 0.8 mm 2 mps 624 mmHg 73%
    17:00 +22°C° 0.7 mm 1 mps 624 mmHg 80%
    18:00 +20°C° 0.7 mm 1 mps 623 mmHg 87%
    19:00 +18°C° 0.7 mm 1 mps 623 mmHg 94%
    20:00 +18°C° 0.1 mm 1 mps 624 mmHg 93%
    21:00 +16°C° 0.1 mm 1 mps 624 mmHg 93%
    22:00 +15°C° 0.1 mm 0 mps 624 mmHg 93%
    23:00 +15°C° 0.1 mm 0 mps 624 mmHg 93%

    22 September, Sunday

    Time Temperature Precipitation Wind Pressure Humidity
    00:00 +15°C° 0.1 mm 0 mps 624 mmHg 93%
    01:00 +15°C° 0.1 mm 0 mps 624 mmHg 93%
    02:00 +15°C° 0.1 mm 0 mps 624 mmHg 93%
    03:00 +15°C° 0.1 mm 0 mps 623 mmHg 93%
    04:00 +15°C° 0.1 mm 0 mps 623 mmHg 93%
    05:00 +15°C° 0 mm 0 mps 624 mmHg 92%
    06:00 +15°C° 0 mm 0 mps 624 mmHg 91%
    07:00 +16°C° 0 mm 0 mps 625 mmHg 90%
    08:00 +18°C° 0 mm 0 mps 626 mmHg 82%
    09:00 +22°C° 0 mm 1 mps 626 mmHg 73%
    10:00 +24°C° 0 mm 1 mps 627 mmHg 65%
    11:00 +25°C° 0.4 mm 1 mps 627 mmHg 64%
    12:00 +25°C° 0.4 mm 1 mps 626 mmHg 62%
    13:00 +26°C° 0.4 mm 1 mps 626 mmHg 60%
    14:00 +25°C° 1.2 mm 1 mps 625 mmHg 67%
    15:00 +24°C° 1.2 mm 1 mps 624 mmHg 73%
    16:00 +22°C° 1.2 mm 1 mps 624 mmHg 80%
    17:00 +21°C° 1.1 mm 1 mps 624 mmHg 84%
    18:00 +19°C° 1.1 mm 1 mps 623 mmHg 89%
    19:00 +18°C° 1.1 mm 1 mps 623 mmHg 93%
    20:00 +18°C° 0.2 mm 1 mps 624 mmHg 92%
    21:00 +16°C° 0.2 mm 1 mps 624 mmHg 92%
    22:00 +16°C° 0.2 mm 1 mps 624 mmHg 91%
    23:00 +16°C° 0 mm 1 mps 624 mmHg 91%
    Show more